Francistown, Botswana

6:57 AM CAT on April 27, 2018 (GMT +0200)
Francistown

Weather History for FBFT - January, 2012

Change the Weather History Date:

Thursday, January 5, 2012

  Actual Average Record
Temperature  
Mean Temperature 78 °F -  
Max Temperature 95 °F 85 °F 98 °F (2005)
Min Temperature 60 °F 66 °F 48 °F (2018)
Cooling Degree Days 12    
Growing Degree Days 28 (Base 50)    
Moisture  
Dew Point 55 °F    
Average Humidity 47    
Maximum Humidity 94    
Minimum Humidity 17    
Precipitation  
Precipitation 0.00 in - - ()
Sea Level Pressure  
Sea Level Pressure 30.02 in    
Wind  
Wind Speed 5 mph ()    
Max Wind Speed 16 mph    
Max Gust Speed -    
Visibility 6.0 miles    
Events      
Averages and records for this station are not official NWS values.
T = Trace of Precipitation, MM = Missing Value Source: Averaged Metar Reports

Daily Weather History Graph

Daily Weather History Graph

Search for Another Location

Airport or City:

Astronomy

Jan. 05, 2012 Rise Set
Actual Time 5:33 AM CAT 6:56 PM CAT
Civil Twilight 5:09 AM CAT 7:21 PM CAT
Nautical Twilight 4:39 AM CAT 7:50 PM CAT
Astronomical Twilight 4:09 AM CAT 8:20 PM CAT
Moon 3:44 PM CAT (1/5) 2:07 AM CAT (1/5)
Length of Visible Light 14h 12m
Length of Day
13h 22m
Waxing Gibbous, 85% of the Moon is Illuminated
Jan 5
Waxing Gibbous
Jan 9
Full
Jan 16
Last Quarter
Jan 23
New
Jan 31
First Quarter

Hourly Weather History & Observations

Time (CAT) Temp. Heat Index Dew Point Humidity Pressure Visibility Wind Dir Wind Speed Gust Speed Precip Events Conditions
12:00 AM 71.6 °F - 57.2 °F 60% 30.04 in - NE 6.9 mph - N/A   Clear
1:00 AM 68.0 °F - 57.2 °F 68% 30.01 in - NNE 3.5 mph - N/A   Clear
3:00 AM 64.4 °F - 57.2 °F 77% 30.01 in - NNW 2.3 mph - N/A   Clear
4:00 AM 62.6 °F - 57.2 °F 82% 30.01 in - Calm Calm - N/A   Clear
5:00 AM 60.8 °F - 57.2 °F 88% 30.04 in - West 2.3 mph - N/A   Clear
6:00 AM 60.8 °F - 59.0 °F 94% 30.04 in - Variable 2.3 mph - N/A   Clear
7:00 AM 69.8 °F - 60.8 °F 73% 30.04 in - Variable 1.2 mph - N/A   Clear
8:00 AM 77.0 °F - 59.0 °F 54% 30.06 in - ENE 4.6 mph - N/A   Clear
9:00 AM 80.6 °F 81.1 °F 59.0 °F 48% 30.06 in - East 8.1 mph - N/A   Clear
10:00 AM 84.2 °F 83.8 °F 59.0 °F 42% 30.06 in - NNE 3.5 mph - N/A   Clear
11:00 AM 86.0 °F 84.9 °F 57.2 °F 37% 30.06 in - ENE 6.9 mph - N/A   Clear
12:00 PM 91.4 °F 89.9 °F 57.2 °F 31% 30.04 in - ESE 16.1 mph - N/A   Clear
1:00 PM 89.6 °F 87.7 °F 55.4 °F 31% 30.04 in - East 11.5 mph - N/A   Clear
2:00 PM 92 °F - 53 °F 17%  in 6 mi East 12.7 mph - -  
2:00 PM 91.4 °F 89.1 °F 53.6 °F 28% 30.01 in - East 12.7 mph - N/A   Clear
3:00 PM 93.2 °F 91.3 °F 55.4 °F 28% 29.98 in - ESE 10.4 mph - N/A   Clear
4:00 PM 93.2 °F - 50.0 °F 23% 29.98 in - East 10.4 mph - N/A   Clear
6:00 PM 91.4 °F - 46.4 °F 21% 29.95 in - ENE 8.1 mph - N/A   Clear
7:00 PM 84.2 °F - 51.8 °F 33% 29.98 in - East 5.8 mph - N/A   Clear
8:00 PM 81 °F - 47 °F 21%  in 6 mi East 6.9 mph - -  
8:00 PM 80.6 °F - 48.2 °F 32% 29.98 in - East 6.9 mph - N/A   Clear
10:00 PM 75.2 °F - 50.0 °F 41% 30.04 in - ENE 5.8 mph - N/A   Clear
11:00 PM 73.4 °F - 51.8 °F 47% 30.06 in - ENE 4.6 mph - N/A   Clear